RH
34 47 48 66 68 91 58 44 62 87 87 89 89 96 96 96 95 96 95 95 93 92 74 54 60 60 54 43 37 42 41 40 56 62 59 54 55 56 55 54 54 52 49
36 45 51 65 60 82 42 28 22 90 94 94 96 95 98 96 95 96 95 96 94 90 69 64 72 62 47 44 69 69 73 61 66 59 61 63 54 58 61 64 59 40 38
41 52 63 79 80 62 29 7 18 29 32 96 96 95 96 96 97 96 95 96 95 94 92 87 95 83 69 60 79 74 78 76 78 78 73 79 76 65 65 70 63 57 66
54 64 69 77 71 75 26 8 11 13 11 13 17 18 26 73 87 87 78 83 87 92 82 84 63 82 89 83 96 92 91 90 86 75 70 66 66 59 65 64 55 49 46
18 20 35 48 41 34 21 13 14 16 17 16 16 17 16 13 15 32 49 51 30 11 10 9 10 10 9 9 10 10 11 13 17 22 22 28 26 17 15 12 12 11 10
42 30 26 45 53 66 62 63 25 18 22 21 19 20 28 30 25 17 14 12 12 14 16 16 15 17 18 20 21 22 22 21 20 20 19 19 19 18 19 20 18 17 16
72 82 87 87 57 58 56 63 75 41 26 25 28 34 35 34 32 29 29 30 31 30 30 30 29 30 28 27 26 26 25 24 22 21 20 18 18 17 16 16 14 14 14
69 70 68 73 84 94 96 94 95 82 49 34 39 43 40 33 32 30 30 30 31 30 30 31 30 30 28 26 24 22 22 23 24 26 28 29 27 26 26 24 22 20 16
62 56 70 90 92 95 91 90 93 98 82 64 48 48 49 39 33 31 30 31 31 34 36 34 35 35 34 32 30 29 28 29 28 28 27 24 22 20 18 18 18 19 19
59 75 97 92 95 66 66 64 68 74 96 94 93 55 52 46 39 37 35 35 34 34 43 40 39 36 33 32 30 31 30 27 24 20 18 16 14 13 13 15 15 17 18
88 94 52 40 52 68 67 75 71 72 82 88 95 98 76 61 46 41 38 36 34 31 31 35 30 34 36 36 32 25 18 14 13 13 12 10 8 6 8 8 8 9 11
76 47 40 35 46 70 74 70 84 78 83 97 97 92 98 96 68 56 46 43 36 32 38 52 46 37 27 18 14 15 15 11 6 4 4 4 5 6 6 6 6 6 6
51 43 40 36 38 59 65 69 75 86 77 89 95 99 97 98 98 70 58 43 49 63 62 38 22 18 20 19 13 7 4 4 5 7 8 10 11 13 13 13 13 13 12
49 51 49 45 54 64 66 70 80 79 76 94 94 96 97 97 96 87 76 67 89 81 42 25 25 19 11 6 4 4 6 8 11 14 16 15 11 9 8 7 10 13 14
48 55 46 39 43 64 66 73 82 84 85 94 98 96 96 96 95 93 95 95 90 59 33 32 25 12 8 6 7 8 10 12 19 19 15 11 9 8 12 19 24 27 30
52 50 42 40 42 53 69 71 65 69 68 72 87 96 96 96 96 95 93 66 52 61 58 49 31 29 19 10 12 12 15 20 21 19 14 10 10 16 25 23 23 25 29
62 62 54 50 46 47 56 68 74 78 75 70 76 79 79 96 96 94 84 82 87 76 64 55 26 14 15 15 13 18 24 25 21 18 14 16 25 33 30 28 28 29 23
67 71 66 62 61 56 58 79 78 81 79 71 73 75 80 87 85 83 84 82 71 47 28 26 27 26 24 21 18 20 25 31 25 20 22 31 33 35 33 29 26 24 22
88 78 72 74 74 76 78 81 82 71 70 77 83 82 84 82 81 75 66 53 42 34 30 27 24 21 19 18 18 27 36 40 34 34 38 41 40 36 29 24 22 22 21
87 79 80 79 78 75 71 67 60 71 78 83 90 81 70 64 62 58 60 56 43 37 30 24 18 14 13 19 23 30 41 36 43 49 45 39 35 30 29 25 20 17 17
83 76 68 63 60 71 67 60 61 69 78 77 70 72 82 77 75 75 70 54 40 32 22 12 12 20 22 32 42 41 43 52 55 49 40 33 33 25 18 17 18 20 16
51 33 18 16 23 42 54 49 49 58 66 59 53 54 66 74 72 70 69 58 38 28 23 23 32 40 47 52 56 53 50 49 42 38 36 29 24 20 20 20 16 14 13
49 49 25 19 21 28 38 40 40 37 41 45 45 50 63 68 67 66 64 59 61 48 40 37 42 51 62 66 66 61 56 49 44 42 41 29 22 20 18 16 16 18 22
54 51 35 36 45 51 48 48 54 51 40 39 40 31 33 35 72 77 70 80 77 72 64 60 70 68 65 64 66 69 61 57 57 53 38 25 20 18 18 19 22 23 24
56 58 63 71 72 80 80 72 61 39 46 52 57 52 54 54 47 62 99 98 91 81 67 63 57 59 64 72 80 78 73 65 60 44 27 21 21 21 23 24 24 25 23
60 61 63 66 60 54 51 47 49 58 60 55 80 88 81 85 83 93 95 87 74 81 82 82 92 94 81 81 90 87 81 73 49 29 24 23 25 26 26 23 22 23 21
Wind_Speed
7 8 8 8 8 7 7 12 16 8 10 10 10 10 13 19 19 17 14 14 13 13 13 12 11 10 7 6 6 4 5 2 2 3 4 3 0 1 4 4 4 6 6
9 8 9 8 9 2 6 10 12 3 8 8 10 14 14 13 11 15 12 14 15 9 9 11 11 10 9 7 8 7 6 6 5 5 6 5 6 6 5 7 7 8 10
8 8 8 7 7 5 6 8 6 8 8 3 1 5 3 3 9 5 4 11 9 13 14 16 11 11 12 10 12 10 9 9 8 10 11 8 11 11 13 13 14 13 17
7 9 8 8 7 9 10 8 6 4 2 2 2 1 1 3 2 3 5 5 7 12 12 7 8 13 18 16 15 13 11 12 13 13 14 17 15 14 14 17 17 17 20
10 9 8 7 5 7 8 9 8 8 6 5 4 4 4 5 6 8 10 10 11 11 11 10 12 14 13 15 13 13 13 14 17 17 18 19 19 20 20 20 20 22 23
12 12 12 10 10 10 9 12 12 12 12 12 11 11 10 10 10 12 13 13 13 13 14 14 14 17 18 18 18 18 19 19 20 21 23 24 24 25 26 25 26 25 26
9 10 10 12 16 15 19 16 18 19 18 16 16 16 15 14 14 15 16 16 16 17 17 18 15 20 20 21 22 22 21 23 23 22 23 24 24 26 27 28 28 28 29
9 9 13 18 21 18 17 19 13 24 25 23 22 21 20 20 19 20 19 19 18 18 18 19 19 21 19 20 20 20 20 22 22 24 25 27 29 30 30 31 32 33 32
14 18 21 27 27 15 8 11 17 16 26 30 30 27 26 24 24 24 22 21 21 20 21 21 22 23 22 22 23 25 26 28 29 31 32 33 32 33 34 35 36 37 37
19 21 18 20 31 21 22 24 23 24 28 30 34 37 33 30 28 27 24 23 23 22 22 23 23 24 26 27 28 27 28 30 31 32 34 37 37 38 38 38 40 40 41
20 20 20 23 27 28 26 26 30 30 32 30 33 33 38 38 34 30 29 27 27 26 23 29 26 26 27 27 28 30 32 33 34 36 38 38 37 37 38 40 40 42 43
22 25 23 26 27 28 27 26 28 31 30 34 34 38 33 39 39 34 31 28 28 27 25 24 28 27 28 29 32 32 33 35 35 33 34 34 37 38 39 40 42 43 44
27 26 25 25 26 27 25 24 27 26 27 26 31 33 38 40 40 38 31 29 28 25 25 25 26 29 30 32 33 31 31 33 34 34 35 38 39 40 41 42 43 44 45
29 28 27 27 25 26 27 24 25 26 26 27 31 34 33 36 33 40 39 32 26 24 26 28 29 30 29 30 31 32 32 32 33 35 35 36 37 40 41 42 41 41 42
30 29 28 28 27 24 25 24 23 22 26 19 20 25 29 38 42 46 48 42 28 27 29 29 30 30 30 32 33 33 33 34 34 35 36 37 38 39 38 36 34 36 38
31 31 31 31 29 26 24 25 26 24 23 21 21 22 25 32 33 32 26 25 25 25 27 29 32 34 36 36 35 33 33 34 35 36 37 37 38 36 34 33 32 34 36
31 32 31 33 33 30 27 27 27 26 23 22 21 20 20 30 34 35 31 29 29 31 33 34 36 36 38 37 35 33 33 35 36 37 37 35 33 33 32 32 30 30 31
35 33 35 35 34 34 31 29 30 30 29 24 24 23 23 23 26 29 30 31 33 34 35 36 38 39 40 38 37 36 35 35 36 36 35 35 35 35 34 32 32 31 33
36 34 34 35 34 33 33 35 35 34 32 29 26 26 27 29 31 33 33 33 35 36 38 38 39 39 40 39 37 36 36 37 36 35 35 35 33 32 32 33 33 34 36
31 33 35 35 33 34 35 35 35 34 33 32 31 32 31 31 32 33 33 35 38 38 39 39 39 39 38 36 36 36 35 35 34 34 34 32 32 34 34 36 35 36 37
31 31 32 33 32 31 32 33 34 34 34 34 32 29 28 34 36 35 35 36 38 40 39 37 35 33 33 33 32 32 32 32 32 32 31 32 34 36 37 36 36 36 36
30 28 30 33 34 33 33 34 33 35 35 37 39 38 33 34 38 40 41 39 37 36 37 36 36 32 30 30 31 32 32 32 31 29 32 34 35 36 36 35 34 34 34
30 32 30 34 35 36 36 38 39 37 38 40 42 42 41 41 41 42 43 43 41 39 36 35 36 35 33 31 31 32 33 32 32 32 34 35 36 35 34 33 32 31 31
33 35 36 34 36 38 39 39 41 41 41 42 44 45 43 43 41 42 43 42 40 42 43 38 36 35 34 33 34 33 34 34 35 34 36 35 34 34 32 31 32 33 35
35 34 35 36 37 38 40 41 42 42 43 42 43 44 42 43 41 38 35 36 35 33 38 40 38 38 37 36 36 37 35 37 37 37 36 35 34 32 33 34 36 37 39
33 34 36 36 38 39 38 39 40 39 41 41 37 38 38 37 39 42 43 43 41 40 40 41 42 42 41 39 38 38 39 39 38 35 35 35 34 34 36 38 39 40 43
Wind_Direction
252 262 262 254 246 266 341 344 349 276 221 219 229 223 225 217 207 201 204 213 222 218 228 238 245 250 244 217 218 230 248 235 220 275 301 329 60 357 339 306 306 305 303
242 254 258 251 269 114 352 333 351 32 221 240 248 243 222 235 218 211 211 221 199 217 227 243 253 254 246 240 254 244 246 237 243 240 241 267 294 287 273 279 282 282 280
224 238 257 248 272 252 287 298 343 7 20 99 258 226 75 276 245 202 246 241 230 224 236 239 229 242 249 246 243 242 250 260 264 266 272 273 279 284 290 295 291 291 290
225 237 247 249 253 243 251 262 264 290 331 42 73 78 328 355 359 286 264 258 276 265 272 290 286 260 245 244 264 245 251 276 283 289 287 289 283 279 277 282 286 288 288
238 243 246 246 259 267 276 271 274 282 275 259 253 238 224 231 238 249 254 258 266 273 273 265 259 260 270 267 272 272 274 274 278 281 283 285 289 291 290 289 286 286 288
247 246 246 248 248 245 261 271 262 268 274 271 260 253 245 242 241 247 249 254 262 270 273 274 276 284 280 289 293 293 290 288 287 288 292 295 297 295 296 298 296 295 288
278 276 277 277 276 275 263 261 251 247 252 252 251 253 256 259 259 257 260 262 266 268 269 273 276 275 281 283 285 287 291 291 293 292 291 293 296 299 296 295 294 291 290
282 288 286 281 277 278 286 261 272 256 249 246 249 253 257 262 262 263 264 264 266 271 275 279 283 282 286 287 288 288 289 290 293 295 296 297 297 294 292 289 286 286 284
285 302 306 320 296 283 309 287 298 292 260 259 256 249 254 255 258 260 263 268 269 270 276 281 283 284 285 288 291 293 296 296 296 294 292 288 287 287 289 289 287 287 284
299 295 296 306 295 304 306 293 293 270 270 275 262 255 253 255 258 262 264 266 269 270 274 277 279 284 288 291 293 291 290 288 287 285 286 288 290 287 287 286 285 286 287
286 296 307 304 308 304 299 295 295 289 285 276 262 253 253 253 254 258 262 266 268 270 272 280 278 281 283 284 282 281 283 284 286 287 286 286 288 290 291 291 292 289 288
294 290 295 304 304 302 304 302 298 284 273 272 258 245 255 250 250 253 255 262 265 269 271 270 279 279 279 278 281 283 286 288 287 286 288 291 293 296 293 291 289 287 286
289 290 292 297 300 300 303 300 302 293 286 270 264 260 250 233 241 247 252 257 263 266 272 274 277 281 284 285 287 287 288 287 289 292 294 294 293 292 292 292 290 290 289
289 287 287 298 301 293 296 307 312 314 307 274 269 246 248 232 224 236 240 251 258 272 279 281 281 286 287 287 285 285 286 288 290 292 293 293 295 296 296 291 288 288 289
280 285 283 289 293 292 298 307 310 312 311 299 272 236 229 227 238 254 263 248 263 269 277 284 289 287 287 286 286 288 291 294 295 295 297 300 297 293 287 286 290 294 294
279 283 287 288 291 291 292 296 301 305 305 298 300 262 242 251 263 261 251 258 269 278 282 287 289 292 293 290 292 294 294 294 296 297 297 296 290 283 284 288 291 294 293
276 279 280 282 285 287 288 288 291 292 293 293 289 278 281 269 258 261 257 261 274 283 287 287 286 286 288 291 291 293 294 296 295 291 290 287 285 287 288 289 289 289 288
269 275 277 275 275 278 280 281 284 288 291 289 283 280 274 271 271 275 278 280 281 282 285 287 288 290 290 290 292 292 292 291 288 285 285 286 286 288 286 286 285 284 285
267 269 267 268 268 267 267 269 274 279 282 284 278 272 274 275 275 274 276 280 283 285 286 288 287 286 286 287 286 285 285 284 284 285 284 283 284 284 284 284 284 285 286
264 265 269 272 272 269 269 272 274 276 278 277 276 278 279 279 279 281 283 288 290 289 289 287 284 284 284 282 282 282 282 282 281 280 279 280 282 283 284 286 288 289 289
264 264 266 270 271 271 273 275 277 278 277 279 278 280 283 286 289 286 285 287 287 288 288 290 287 285 284 283 281 281 281 279 278 278 280 281 282 284 286 289 290 291 295
265 263 266 267 269 270 271 274 275 277 279 281 282 282 281 280 282 284 287 287 283 284 287 290 287 283 281 282 283 281 279 277 278 278 280 282 284 284 285 289 294 296 296
269 270 266 268 270 270 271 274 275 276 278 280 282 284 285 286 286 285 285 284 283 285 285 285 284 280 280 282 282 283 281 280 280 280 282 283 284 285 289 293 292 292 293
269 269 272 270 270 273 275 275 277 281 283 284 284 283 283 283 282 283 287 286 282 280 279 278 276 277 279 282 285 283 280 280 280 283 282 282 285 288 290 290 289 291 293
274 274 272 272 270 270 274 275 276 277 279 281 282 283 284 284 286 286 282 279 284 282 279 280 281 281 281 283 282 278 277 276 278 279 278 281 284 284 283 285 289 293 294
275 275 275 273 274 275 273 274 276 280 280 281 281 278 283 283 288 285 280 289 281 278 281 281 281 281 279 277 274 272 272 273 274 275 277 278 277 277 282 287 291 292 293